SONATE-2
1 59112U 24043Q   26221.86567116  .00029475  00000-0  32791-3 0  9996
2 59112  97.5573  15.7412 0005076  10.9002 349.2364 15.62822621136260
GRBBeta
1 60237U 24128C   26221.83974867  .00002109  00000-0  15306-3 0  9990
2 60237  61.9902  27.9767 0033340 146.3725 213.9493 15.06972694114350
Curium One
1 60242U 24128H   26221.83965038  .00005439  00000-0  31341-3 0  9992
2 60242  61.9793  15.6444 0032534 142.3264 218.0119 15.13216321114579
ROBUSTA-3A
1 60243U 24128J   26221.83540191  .00005166  00000-0  30530-3 0  9998
2 60243  61.9868  18.4327 0034258 139.4774 220.8882 15.12332103114532
CatSat
1 60246U 24125J   26221.56536470  .00056315  00000-0  55352-3 0  9994
2 60246  97.2037  75.0191 0015633 346.7294  13.3553 15.65700604115724
HYPERVIEW-1G (RS66S)
1 61772U 24199AP  26221.86956258  .00748767  28233-3  11097-2 0  9990
2 61772  97.2615 105.1256 0006507 147.9296 212.2382 16.04937767143188
AO-123
1 61781U 24199AY  26221.84442213  .00004978  00000-0  14203-3 0  9990
2 61781  97.2928  90.0371 0015348 113.1665 247.1198 15.36388397142165
LASARsat
1 62391U 24247Q   26220.69897484  .00022797  00000-0  40741-3 0  9993
2 62391  44.9744 326.4161 0009647 310.7065  49.2988 15.49634465 91452
CroCube
1 62394U 24247T   26221.71842102  .00030956  00000-0  50351-3 0  9991
2 62394  44.9718 317.0013 0009752 323.3706  36.6518 15.52128692 91652
JINJUSat 1B
1 63210U 25052A   26221.68990131  .00011190  00000-0  33087-3 0  9992
2 63210  97.3930 118.5584 0001177 211.6870 148.4303 15.35089239 78304
NUSHSAT 1
1 63211U 25052B   26221.64036227  .00014835  00000-0  39900-3 0  9995
2 63211  97.3907 119.2742 0000752 193.8895 166.2330 15.37981835 78357
TEVEL2-4
1 63213U 25052D   26221.68394596  .00013262  00000-0  37552-3 0  9991
2 63213  97.3828 118.2131 0000168   4.6606 355.4639 15.36407859 78321
TEVEL2-5
1 63214U 25052E   26221.64581100  .00013192  00000-0  37601-3 0  9994
2 63214  97.3826 118.1063 0000271   6.7319 353.3928 15.36202521 78318
TEVEL2-6
1 63215U 25052F   26221.65937073  .00013292  00000-0  37926-3 0  9991
2 63215  97.3829 118.1047 0000387  22.6717 337.4544 15.36167265 78313
TEVEL2-1
1 63217U 25052H   26221.64294105  .00012489  00000-0  36339-3 0  9998
2 63217  97.3804 117.6461 0001039 359.7056   0.4187 15.35568611 78293
TEVEL2-3
1 63218U 25052J   26221.70058153  .00012230  00000-0  35511-3 0  9992
2 63218  97.3808 117.7335 0001002  18.0332 342.0947 15.35638434 78303
TEVEL2-2
1 63219U 25052K   26221.64287215  .00012606  00000-0  36661-3 0  9993
2 63219  97.3805 117.6495 0001070   0.1245 359.9999 15.35581506 78296
TEVEL2-9
1 63237U 25052AD  26221.69167640  .00011068  00000-0  34440-3 0  9991
2 63237  97.3865 116.9521 0004374 332.2804  27.8205 15.33465331 78223
TEVEL2-7
1 63238U 25052AE  26221.67829198  .00011272  00000-0  35441-3 0  9992
2 63238  97.3871 116.8309 0004485 331.5200  28.5797 15.33129619 78218
TEVEL2-8
1 63239U 25052AF  26221.68703836  .00010804  00000-0  33996-3 0  9997
2 63239  97.3871 116.8150 0004456 333.7025  26.3991 15.33115852 78216
SPIRONE
1 66657U 25274H   26221.78129265  .00000662  00000-0  67864-4 0  9992
2 66657  97.7468 150.3114 0011570 188.3746 171.7283 14.93738650 38229
K-HERO
1 66660U 25274L   26221.77122874  .00000794  00000-0  79497-4 0  9995
2 66660  97.7477 150.5015 0013283 193.8171 166.2687 14.94140331 38233
SNUGLITE-III DURI
1 66661U 25274M   26221.75796507  .00001028  00000-0  10127-3 0  9999
2 66661  97.7473 150.5091 0013926 195.1475 164.9330 14.94158124 38239
SAKHACUBE-CHOLBON
1 67290U 25313AU  26221.16627161  .00006418  00000-0  25383-3 0  9994
2 67290  97.3908 295.5622 0009839 159.9018 200.2609 15.25769371 34052
RS95S (QMR-KWT-2)
1 67291U 25313AV  26221.16439575  .00010597  00000-0  39504-3 0  9998
2 67291  97.3904 295.8614 0009588 157.9612 202.2042 15.27574898 34077
Ten-Koh2
1 68261U 25241B   26221.78075326  .00004659  00000-0  20056-3 0  9998
2 68261  51.6572  64.4423 0005714 316.7714  43.2815 15.24467259 23081
JACK-002
1 68417U 26067B   26221.82468530  .00003985  00000-0  18822-3 0  9995
2 68417  97.4601 179.7866 0004138  90.2798 269.8911 15.19990909 20099
DISCO 2
1 68431U 26067R   26221.85456668  .00004487  00000-0  21267-3 0  9998
2 68431  97.4633 179.8089 0003371 127.4448 232.7094 15.19810618 20090
HADES-SA (SpinnyONE)
1 68446U 26067AG  26221.87644708  .00010886  00000-0  49678-3 0  9996
2 68446  97.4428 179.4452 0004105 233.7545 126.3311 15.20781015 20082
PARUS-6U1
1 68456U 26067AS  26221.85352631  .00002936  00000-0  14760-3 0  9997
2 68456  97.4590 179.4228 0003956 222.2683 137.8247 15.18026308 20071
SAL-E
1 68458U 26067AU  26221.83692089  .00004451  00000-0  21930-3 0  9992
2 68458  97.4511 179.3169 0003824 235.2186 124.8688 15.18463900 20073
FSI-SAT 2
1 68792U 26088A   26221.86846892  .00001883  00000-0  12897-3 0  9990
2 68792  97.5133   9.8149 0012601 285.4386  74.5450 15.07208821 16375
OrigamiSat 2
1 68795U 26088D   26221.86343868  .00006653  00000-0  41453-3 0  9998
2 68795  97.5125  10.1299 0013556 251.4580 108.5177 15.09817192 16394
ARICA 2
1 68796U 26088E   26221.82039222  .00002615  00000-0  16999-3 0  9992
2 68796  97.5125  10.0183 0014098 252.8792 107.0893 15.08800635 16389
WASEDA-SAT-ZERO-II
1 68797U 26088F   26221.67301553  .00003188  00000-0  20429-3 0  9994
2 68797  97.5119   9.9047 0013821 252.4852 107.4866 15.09170130 16368
MANGARO-II-Piscus
1 68798U 26088G   26221.86088889  .00001460  00000-0  95761-4 0  9993
2 68798  97.5131  10.1286 0017346 255.8599 104.0703 15.09115923 16398
CO-128
1 69872U 26156D   26221.70196147  .00000444  00000-0  50758-4 0  9991
2 69872  97.7487 121.5463 0004006  24.2872 335.8534 14.90753553  4976
MARINA
1 69920U 26156BD  26221.67381078  .00001353  00000-0  13881-3 0  9995
2 69920  97.7497 121.5868 0008770  51.4371 308.7633 14.92044230  4974
IO-86
1 40931U          26199.45381863  .00000000  00000-0  77536-4 0    07
2 40931   6.0006 322.6653 0012733 338.8432 273.6875 14.79294310    03
LILIUM-4                
1 71922C 26067AC  26089.50133053 -.00014632  00000+0 -74472-3 0    04
2 71922  97.4497  49.1617 0004341   5.9603 355.7042 15.16896692    16
